This demonstration page uses our WeatherBlox Daily Observations layout. Learn more.

38.88101, -77.10428

Hourly Observations for February 1, 2018

Temp ( °F °C ) Dew Point ( °F °C ) Humidity (%) Winds ( mph kmh ) Pressure ( in mb ) Visibility ( mi km ) Precip ( " mm )
12:52 am 00:52 Cloudy 41 5 20 -6.7 43 43 SSW 15 24 30.02 1017 10 16.0934 0 0
1:52 am 01:52 Cloudy 41 5 20 -6.7 43 43 SSW 14 22 30.02 1017 10 16.0934 0 0
2:52 am 02:52 Cloudy 41 5 21 -6.1 45 45 SSW 12 19 30.02 1017 10 16.0934 0 0
3:52 am 03:52 Cloudy 40 4.4 22 -5.6 49 49 SSW 12 19 30.02 1017 10 16.0934 0 0
4:52 am 04:52 Cloudy 40 4.4 22 -5.6 49 49 SSW 10 17 30.02 1017 10 16.0934 0 0
5:52 am 05:52 Cloudy 40 4.4 22 -5.6 49 49 S 8 13 30.02 1017 10 16.0934 0 0
6:52 am 06:52 Cloudy 40 4.4 24 -4.4 53 53 SSW 8 13 30.01 1016 10 16.0934 0 0
7:52 am 07:52 Cloudy 40 4.4 24 -4.4 53 53 S 8 13 30.01 1016 10 16.0934 0 0
8:52 am 08:52 Cloudy 41 5 24 -4.4 51 51 SSW 10 17 30.01 1016 10 16.0934 0 0
9:52 am 09:52 Cloudy 43 6.1 24 -4.4 47 47 SSW 8 13 30.02 1017 10 16.0934 0 0
10:52 am 10:52 Cloudy 45 7.2 24 -4.4 44 44 SSW 10 17 30.01 1016 10 16.0934 0 0
11:52 am 11:52 Cloudy 48 8.9 25 -3.9 41 41 SSW 12 19 29.98 1015 10 16.0934 0 0
12:52 pm 12:52 Cloudy 50 10 26 -3.3 39 39 SSW 10 17 29.95 1014 10 16.0934 0 0
1:52 pm 13:52 Cloudy 51 10.6 27 -2.8 39 39 SSW 14 22 29.93 1014 10 16.0934 0 0
2:52 pm 14:52 Cloudy 52 11.1 28 -2.2 40 40 S 10 17 29.92 1013 10 16.0934 0 0
3:52 pm 15:52 Cloudy 52 11.1 31 -0.6 45 45 S 8 13 29.91 1013 10 16.0934 0 0
4:52 pm 16:52 Cloudy 53 11.7 31 -0.6 43 43 S 10 17 29.9 1013 10 16.0934 0 0
5:24 pm 17:24 Cloudy 53 11.7 32 0 45 45 S 12 19 29.88 1012 10 16.0934 0 0
5:52 pm 17:52 Cloudy 54 12.2 33 0.6 45 45 SSW 14 22 29.89 1012 10 16.0934 0 0
6:52 pm 18:52 Cloudy 52 11.1 33 0.6 49 49 S 8 13 29.89 1012 10 16.0934 0 0
7:52 pm 19:52 Cloudy 49 9.4 35 1.7 59 59 S 7 11 29.87 1012 10 16.0934 0 0
8:52 pm 20:52 Cloudy 48 8.9 35 1.7 61 61 S 8 13 29.86 1011 10 16.0934 0 0
9:52 pm 21:52 Cloudy with Light Rain 49 9.4 37 2.8 64 64 WSW 5 7 29.86 1011 10 16.0934 0 0.0254
10:11 pm 22:11 Cloudy with Light Rain 49 9.4 40 4.4 71 71 NW 14 22 29.88 1012 10 16.0934 0 0.0254
10:52 pm 22:52 Cloudy with Light Rain 47 8.3 41 5 80 80 NW 10 17 29.89 1012 10 16.0934 0.01 0.254
11:22 pm 23:22 Cloudy with Light Rain 44 6.7 40 4.4 85 85 NW 15 24 29.91 1013 10 16.0934 0 0.0254
11:52 pm 23:52 Cloudy with Light Rain 43 6.1 39 3.9 86 86 NNW 15 24 29.9 1013 10 16.0934 0.01 0.254

Powered by AerisWeather